Weather History for Homestead AFB, FL

Change the Weather History Date:

Saturday, February 16, 2013

  Actual Average Record
Temperature  
Mean Temperature 66 °F -  
Max Temperature 75 °F 78 °F 87 °F (1939)
Min Temperature 56 °F 55 °F 26 °F (1943)
Cooling Degree Days 1    
Growing Degree Days 16 (Base 50)    
Moisture  
Dew Point 61 °F    
Average Humidity 86    
Maximum Humidity 100    
Minimum Humidity 41    
Precipitation  
Precipitation 0.10 in - - ()
Sea Level Pressure  
Sea Level Pressure 29.95 in    
Wind  
Wind Speed 6 mph (NW)    
Max Wind Speed 20 mph    
Max Gust Speed 25 mph    
Visibility 8 miles    
Events Rain    
Averages and records for this station are not official NWS values.
T = Trace of Precipitation, MM = Missing Value Source: NWS Daily Summary

Daily Weather History Graph

Daily Weather History Graph

Search for Another Location

Airport:

Trip Planner

Search our weather history database for the weather conditions in past years. The results will help you decide how hot, cold, wet, or windy it might be!

Date:

Astronomy

Feb. 16, 2013 Rise Set
Actual Time 6:55 AM EST 6:16 PM EST
Civil Twilight 6:32 AM EST 6:39 PM EST
Nautical Twilight 6:05 AM EST 7:06 PM EST
Astronomical Twilight 5:38 AM EST 7:33 PM EST
Moon 10:51 AM EST (2/16) No Moon Set
Length of Visible Light 12h 07m
Length of Day
11h 20m
Waxing Crescent, 39% of the Moon is Illuminated
Feb 16
Waxing Crescent
Feb 17
First Quarter
Feb 25
Full
Mar 4
Last Quarter
Mar 11
New

Hourly Weather History & Observations

Time (EST) Temp. Dew Point Humidity Pressure Visibility Wind Dir Wind Speed Gust Speed Precip Events Conditions
12:03 AM 64.4 °F 64.4 °F 100% 29.96 in 5.0 mi NW 3.5 mph - N/A Rain Light Rain
12:23 AM 64.4 °F 64.4 °F 100% 29.96 in 5.0 mi WNW 1.2 mph - N/A Rain Light Rain
12:33 AM 64.4 °F 64.4 °F 100% 29.96 in 5.0 mi Calm Calm - N/A Rain Light Rain
12:43 AM 64.4 °F 64.4 °F 100% 29.95 in 6.0 mi Calm Calm - N/A Rain Light Rain
12:58 AM 66.2 °F 64.4 °F 94% 29.96 in 6.0 mi NNW 1.2 mph - 0.02 in Rain Light Rain
1:08 AM 66.2 °F 64.4 °F 94% 29.94 in 6.0 mi NNW 3.5 mph - N/A Rain Light Rain
1:15 AM 66.2 °F 64.4 °F 94% 29.95 in 7.0 mi NW 3.5 mph - N/A   Overcast
1:18 AM 66.2 °F 64.4 °F 94% 29.94 in 7.0 mi NW 3.5 mph - N/A   Light Drizzle
1:48 AM 66.2 °F 64.4 °F 94% 29.93 in 6.0 mi NNW 5.8 mph - N/A Rain Light Rain
1:53 AM 66.2 °F 64.4 °F 94% 29.93 in 6.0 mi NNW 4.6 mph - N/A Rain Light Rain
1:58 AM 66.2 °F 64.4 °F 94% 29.94 in 5.0 mi NW 4.6 mph - 0.01 in Rain Light Rain
2:03 AM 66.2 °F 64.4 °F 94% 29.93 in 5.0 mi NW 5.8 mph - N/A Rain Light Rain
2:13 AM 66.2 °F 64.4 °F 94% 29.92 in 6.0 mi NW 5.8 mph - N/A Rain Light Rain
2:43 AM 66.2 °F 64.4 °F 94% 29.92 in 5.0 mi NW 9.2 mph - N/A Rain Rain
2:58 AM 66.2 °F 64.4 °F 94% 29.92 in 4.0 mi NNW 6.9 mph - 0.03 in Rain Light Rain
3:03 AM 66.2 °F 64.4 °F 94% 29.91 in 5.0 mi NNW 9.2 mph - N/A Rain Light Rain
3:08 AM 66.2 °F 64.4 °F 94% 29.91 in 7.0 mi NW 9.2 mph - N/A Rain Light Rain
3:23 AM 66.2 °F 64.4 °F 94% 29.91 in 7.0 mi NNW 8.1 mph - N/A Rain Light Rain
3:28 AM 66.2 °F 64.4 °F 94% 29.91 in 7.0 mi NW 8.1 mph - N/A Rain Light Rain
3:38 AM 66.2 °F 64.4 °F 94% 29.91 in 9.0 mi NNW 8.1 mph - N/A Rain Light Rain
3:43 AM 66.2 °F 64.4 °F 94% 29.90 in 9.0 mi North 6.9 mph - N/A Rain Light Rain
3:48 AM 64.4 °F 64.4 °F 100% 29.90 in 8.0 mi North 6.9 mph - N/A Rain Light Rain
3:53 AM 64.4 °F 64.4 °F 100% 29.90 in 6.0 mi North 6.9 mph - N/A Rain Light Rain
3:58 AM 64.4 °F 64.4 °F 100% 29.91 in 6.0 mi NNW 9.2 mph - 0.01 in Rain Light Rain
4:18 AM 64.4 °F 64.4 °F 100% 29.90 in 10.0 mi NNW 10.4 mph - N/A Rain Light Rain
4:28 AM 64.4 °F 64.4 °F 100% 29.90 in 9.0 mi NNW 11.5 mph - N/A   Light Drizzle
4:58 AM 64.4 °F 64.4 °F 100% 29.91 in 9.0 mi North 5.8 mph - 0.01 in Rain Light Rain
5:03 AM 64.4 °F 64.4 °F 100% 29.90 in 9.0 mi NNW 8.1 mph - N/A Rain Light Rain
5:08 AM 64.4 °F 64.4 °F 100% 29.90 in 10.0 mi North 6.9 mph - N/A Rain Light Rain
5:38 AM 64.4 °F 64.4 °F 100% 29.90 in 10.0 mi NNW 8.1 mph - N/A Rain Light Rain
5:58 AM 64.4 °F 64.4 °F 100% 29.92 in 10.0 mi NNW 8.1 mph - 0.01 in   Light Drizzle
6:13 AM 64.4 °F 62.6 °F 94% 29.91 in 10.0 mi North 6.9 mph - N/A   Mostly Cloudy
6:15 AM 64.4 °F 62.6 °F 94% 29.91 in 10.0 mi North 6.9 mph - N/A Rain Light Rain
6:25 AM 64.4 °F 62.6 °F 94% 29.91 in 10.0 mi Variable 6.9 mph - N/A Rain Light Rain
6:53 AM 64.4 °F 62.6 °F 94% 29.92 in 10.0 mi NNW 5.8 mph - N/A   Mostly Cloudy
6:58 AM 64.4 °F 62.6 °F 94% 29.93 in 10.0 mi North 5.8 mph - 0.00 in   Mostly Cloudy
6:59 AM 64.4 °F 62.6 °F 94% 29.92 in 10.0 mi NNW 4.6 mph - N/A Rain Light Rain
7:12 AM 64.4 °F 62.6 °F 94% 29.92 in 10.0 mi NNW 8.1 mph - N/A   Overcast
7:58 AM 64.4 °F 62.6 °F 94% 29.95 in 10.0 mi NNW 6.9 mph - 0.01 in   Partly Cloudy
8:58 AM 64.4 °F 62.6 °F 94% 29.95 in 10.0 mi NW 9.2 mph - N/A   Clear
9:58 AM 68.0 °F 62.6 °F 83% 29.97 in 10.0 mi NNW 8.1 mph - N/A   Partly Cloudy
10:58 AM 71.6 °F 62.6 °F 73% 29.97 in 10.0 mi NNW 10.4 mph - N/A   Clear
11:58 AM 71.6 °F 60.8 °F 69% 29.97 in 10.0 mi NW 13.8 mph - N/A   Partly Cloudy
12:58 PM 73.4 °F 55.4 °F 53% 29.95 in 10.0 mi WNW 13.8 mph - N/A   Partly Cloudy
1:58 PM 75.2 °F 50.0 °F 41% 29.93 in 10.0 mi WNW 13.8 mph - N/A   Clear
2:58 PM 73.4 °F 51.8 °F 47% 29.93 in 10.0 mi West 19.6 mph 25.3 mph N/A   Clear
3:58 PM 73.4 °F 50.0 °F 44% 29.94 in 10.0 mi WNW 16.1 mph 24.2 mph N/A   Clear
4:58 PM 70.3 °F 49.3 °F 47% 29.96 in 10.0 mi WNW 18.4 mph 24.2 mph N/A   Scattered Clouds
5:58 PM 67.5 °F 48.6 °F 51% 29.98 in 10.0 mi WNW 12.7 mph - N/A   Clear
6:58 PM 62.6 °F 51.8 °F 68% 30.04 in 10.0 mi NW 16.1 mph 20.7 mph N/A   Clear
7:58 PM 62.6 °F 50.0 °F 63% 30.04 in 10.0 mi WNW 16.1 mph 20.7 mph N/A   Clear
8:58 PM 61.9 °F 49.8 °F 65% 30.07 in 10.0 mi NW 13.8 mph 21.9 mph N/A   Clear
9:58 PM 59.5 °F 49.1 °F 68% 30.09 in 10.0 mi NW 13.8 mph 21.9 mph N/A   Clear
10:58 PM 57.9 °F 46.0 °F 65% 30.11 in 10.0 mi NW 12.7 mph - N/A   Clear
11:58 PM 56.5 °F 46.0 °F 68% 30.12 in 10.0 mi NNW 11.5 mph - N/A   Clear